DMSP 5D-3 F19 DEB

Satellite information

Favourite Embed

Satellite Type and Status

DEBRISIN ORBIT

Key statistics

Satellite DMSP 5D-3 F19 DEB at a glance.

Uptime

4220

Days in orbit

Revolutions

≈ 14.3

Per day

Orbit

SSO

Sun Synchronous Orbit

Inclination

98.7

Latest

Satellite identification and parameters

Extended collection of information and parameters for DMSP 5D-3 F19 DEB.

Object identification

Identified? True

Debris? True

Object name: DMSP 5D-3 F19 DEB

International designator: 2014-015D

Object number (NORAD): 39633

Object ID (CCSDS): 39633

Country: UNITED STATES OF AMERICA (US)

Current information (Y/N): Y

RCS size: SMALL

Orbital parameters

Period: 101.035 minutes

Inclination: 98.6795 deg

SMA: 7185.794 km

Apoapsis: 812.165 km

Periapsis: 803.152 km

RAAN: 304.9004 deg

Eccentricy: 0.0006272

Argument of periapsis: 91.0213 deg

Mean anomaly: 269.1685 deg

Mean motion: 14.25248717 rev/day

Mean motion (dot): 0.00003322 rev/day2

B* drag term: 0.0014304 1/REarth

Two-line elements (TLE)

Creation date: Oct. 21, 2025, 11:56 p.m.

Reference frame: TEME

Reference center: EARTH

Epoch: Oct. 21, 2025, 6:04 p.m. UTC

TLE line 0: 0 DMSP 5D-3 F19 DEB

TLE line 1: 1 39633U 14015D 25294.75330443 .00003322 00000-0 14304-2 0 9990

TLE line 2: 2 39633 98.6795 304.9004 0006272 91.0213 269.1685 14.25248717597664

Live tracking on map

Real-time ground track for satellite DMSP 5D-3 F19 DEB.

In-orbit conjunctions

A list of the most updated potential collisions computed for object DMSP 5D-3 F19 DEB.

Target Orbit TCA Probability of collision Miss distance Type
CZ-6A R/B LEO 2025-09-07 12:58:36 0.000292516 868.0 (m) ROCKET BODY

Associated space launch

DMSP-5D3 (Defense Meteorological Satellite Program Block 5D3) is the eleventh and most recent version of the military meteorological satellites of the Defense Meteorological Satellite Program.

DMSP 5D-3 F19 DEB was lifted into orbit during the mission ‘Atlas V 401 | DMSP-5D3 F19’, on board a Atlas V 401 space rocket.

The launch took place on April 3, 2014, 2:46 p.m. from Space Launch Complex 3E.

For more information about the launch, click the button.

Launch to space Atlas V 401 | DMSP-5D3 F19
Atlas V 401 | DMSP-5D3 F19

Agency: N/A

Status: Launch Successful

Launch date: April 3, 2014, 2:46 p.m. UTC

Rocket: Atlas V 401

Launch pad: Space Launch Complex 3E

Location: Vandenberg SFB, CA, USA

...

Latest news about this satellite

There are no fresh news available about this satellite. Check back as we update our databases every day.


Newsletter sign-up

Weekly statistics, charts and insights to help you stay on top of the space industry.